R/V Knorr Calliope CSV data file - KN193_II  (Time stamps are GMT)
Date, Time_GMT, Depth12, Depth35, Air_Temp, WXT5_Ta, WXT5_Pa, dec_lat, dec_lon, EDO_knt, GPS_COG, GPS_SOG, Gyro, IMET_BPR, IMET_SWR, WXT5_Ri, WXT5_Rc, HRH, WXT5_Ua, WXT5_Dm, WXT5_Sm, SBE45C, SBE45S, SBE45T, Salinity, SSCND, Fluorometer, SSTMP, SSV, Wnd_Dir, TWD_5, Wnd_Spd, TWS_5, HdChkSum=52
2008/04/21, 00:00:44, 1680.00, 0.00, -3.56, -3.00, 1017.9, 70.2709580, -13.0135700, , 254.90, 12.78, 252.80, 1018.93, 0.30, 0.0, 38.68, 84.96, 91.4, 340, 11.0, 30.50490, 34.48260, 2.1609, 34.4826, 30.5049, 82.00, 0.2154, 1449.43, 184.10, 202.3, 2.46, 5.7, 52
2008/04/21, 00:01:44, 1429.00, 0.00, -3.53, -3.00, 1017.9, 70.2700530, -13.0236720, , 254.20, 12.79, 252.50, 1018.92, 0.30, 0.0, 38.68, 85.03, 91.3, 337, 12.4, 30.49070, 34.48410, 2.1432, 34.4841, 30.4907, 82.40, 0.2090, 1449.41, 197.70, 203.5, 2.34, 7.2, 52
2008/04/21, 00:02:44, 1428.00, 0.00, -3.53, -3.00, 1017.9, 70.2690920, -13.0337430, , 251.50, 12.91, 251.60, 1018.92, 0.40, 0.0, 38.68, 84.96, 91.2, 330, 12.4, 30.49290, 34.48540, 2.1446, 34.4854, 30.4929, 82.70, 0.2091, 1449.41, 192.90, 190.0, 3.46, 8.0, 52
2008/04/21, 00:03:44, 1422.00, 0.00, -3.59, -3.00, 1017.9, 70.2681700, -13.0438980, , 254.60, 12.93, 253.20, 1018.80, 0.10, 0.0, 38.68, 84.94, 91.0, 328, 9.7, 30.50260, 34.48640, 2.1548, 34.4864, 30.5026, 82.40, 0.2160, 1449.44, 185.90, 177.9, 4.20, 6.0, 52
2008/04/21, 00:04:44, 1422.00, 0.00, -3.48, -3.00, 1018.0, 70.2672080, -13.0540820, , 255.60, 12.94, 252.80, 1018.85, 0.20, 0.0, 38.68, 84.74, 90.9, 328, 8.6, 30.51070, 34.48690, 2.1636, 34.4869, 30.5107, 83.20, 0.2182, 1449.45, 168.80, 168.5, 5.06, 5.1, 52
2008/04/21, 00:05:43, 2135.00, 0.00, -3.45, -3.00, 1018.0, 70.2663200, -13.0642950, , 254.60, 12.97, 252.90, 1018.86, 0.20, 0.0, 38.68, 84.55, 90.9, 323, 9.4, 30.50710, 34.48540, 2.1608, 34.4854, 30.5071, 82.00, 0.2195, 1449.46, 163.40, 169.8, 4.16, 6.1, 52
2008/04/21, 00:06:43, 1414.00, 0.00, -3.53, -3.00, 1017.9, 70.2653670, -13.0744450, , 255.70, 12.99, 253.40, 1018.84, 0.40, 0.0, 38.68, 84.64, 91.0, 334, 10.1, 30.50840, 34.48720, 2.1607, 34.4872, 30.5084, 82.00, 0.2185, 1449.45, 164.50, 187.3, 4.35, 5.4, 52
2008/04/21, 00:07:43, 1409.00, 0.00, -3.45, -2.90, 1017.9, 70.2644080, -13.0845900, , 256.80, 12.85, 254.00, 1018.89, 0.40, 0.0, 38.68, 84.74, 91.0, 333, 8.9, 30.50640, 34.48750, 2.1581, 34.4875, 30.5064, 81.70, 0.2142, 1449.44, 167.80, 178.8, 3.19, 4.5, 52
2008/04/21, 00:08:43, 0.00, 0.00, -3.36, -2.90, 1017.8, 70.2635080, -13.0947650, , 257.20, 12.55, 252.80, 1018.87, 0.40, 0.0, 38.68, 84.91, 91.2, 337, 11.8, 30.50440, 34.48780, 2.1556, 34.4878, 30.5044, 81.20, 0.2077, 1449.40, 158.30, 202.6, 2.32, 6.3, 52
2008/04/21, 00:09:43, 1426.00, 0.00, -3.34, -2.80, 1017.9, 70.2625570, -13.1048520, , 256.40, 12.84, 253.90, 1018.80, 0.40, 0.0, 38.68, 84.91, 91.0, 333, 11.2, 30.48780, 34.48760, 2.1366, 34.4876, 30.4878, 82.00, 0.2040, 1449.39, 188.20, 193.1, 2.67, 6.3, 52
2008/04/21, 00:10:43, 1430.00, 0.00, -3.39, -2.80, 1017.8, 70.2616070, -13.1149380, , 254.20, 12.82, 251.70, 1018.78, 0.50, 0.0, 38.68, 84.79, 90.8, 340, 11.1, 30.48350, 34.48960, 2.1299, 34.4896, 30.4835, 81.70, 0.2070, 1449.40, 170.00, 201.5, 3.08, 5.8, 52
2008/04/21, 00:11:43, 1434.00, 0.00, -3.45, -2.80, 1017.8, 70.2607030, -13.1250800, , 254.40, 12.67, 253.40, 1018.86, 0.50, 0.0, 38.68, 84.67, 90.8, 341, 11.8, 30.49460, 34.49100, 2.1414, 34.4910, 30.4946, 80.80, 0.2118, 1449.43, 184.00, 206.8, 2.44, 6.3, 52
2008/04/21, 00:12:43, 1418.00, 0.00, -3.31, -2.70, 1017.8, 70.2597850, -13.1352130, , 254.70, 12.82, 254.10, 1018.87, 0.50, 0.0, 38.68, 84.69, 90.7, 338, 12.4, 30.50490, 34.49200, 2.1523, 34.4920, 30.5049, 80.50, 0.2113, 1449.43, 183.90, 203.7, 2.46, 7.2, 52
2008/04/21, 00:13:43, 1419.00, 0.00, -3.28, -2.70, 1017.8, 70.2588750, -13.1452970, , 254.80, 12.95, 253.10, 1018.76, 0.50, 0.0, 38.68, 84.57, 90.7, 338, 11.8, 30.49940, 34.49030, 2.1475, 34.4903, 30.4994, 81.20, 0.2043, 1449.39, 179.80, 201.8, 3.17, 6.6, 52
2008/04/21, 00:14:44, 0.00, 0.00, -3.23, -2.70, 1017.8, 70.2580630, -13.1554400, , 255.70, 12.85, 252.30, 1018.81, 0.40, 0.0, 38.68, 84.38, 90.3, 338, 10.0, 30.50720, 34.49300, 2.1541, 34.4930, 30.5072, 80.80, 0.1930, 1449.34, 191.80, 192.2, 3.07, 5.3, 52
2008/04/21, 00:15:43, 1441.00, 0.00, -3.23, -2.70, 1017.8, 70.2571720, -13.1655050, , 254.50, 12.71, 252.50, 1018.82, 0.40, 0.0, 38.68, 84.42, 90.2, 338, 12.9, 30.50440, 34.49220, 2.1515, 34.4922, 30.5044, 80.80, 0.1835, 1449.30, 172.60, 204.9, 2.46, 7.6, 52
2008/04/21, 00:16:43, 1444.00, 0.00, -3.17, -2.70, 1017.7, 70.2562800, -13.1755330, , 255.00, 12.55, 251.60, 1018.71, 0.30, 0.0, 38.68, 84.47, 90.3, 340, 13.3, 30.49380, 34.49180, 2.1396, 34.4918, 30.4938, 80.50, 0.1850, 1449.31, 185.40, 208.9, 3.51, 7.9, 52
2008/04/21, 00:17:44, 1442.00, 0.00, -3.31, -2.60, 1017.7, 70.2554200, -13.1855570, , 256.80, 12.60, 252.80, 1018.70, 0.50, 0.0, 38.68, 84.42, 90.1, 340, 12.1, 30.48920, 34.49190, 2.1343, 34.4919, 30.4892, 79.60, 0.1866, 1449.31, 210.80, 207.2, 3.34, 6.8, 52
2008/04/21, 00:18:44, 1436.00, 0.00, -3.23, -2.60, 1017.7, 70.2545100, -13.1955420, , 253.70, 12.42, 251.70, 1018.68, 0.20, 0.0, 38.68, 84.40, 89.9, 337, 10.9, 30.48800, 34.49200, 2.1328, 34.4920, 30.4880, 79.60, 0.1883, 1449.32, 190.10, 194.9, 3.34, 6.2, 52
2008/04/21, 00:19:44, 0.00, 0.00, -3.28, -2.70, 1017.6, 70.2536880, -13.2055620, , 259.90, 12.50, 255.60, 1018.79, 0.30, 0.0, 38.68, 84.40, 89.9, 341, 12.6, 30.49080, 34.49160, 2.1364, 34.4916, 30.4908, 80.20, 0.1908, 1449.33, 203.10, 213.9, 2.35, 7.1, 52
2008/04/21, 00:20:43, 1445.00, 0.00, -3.28, -2.70, 1017.7, 70.2529020, -13.2155750, , 255.40, 12.66, 251.40, 1018.81, 0.10, 0.0, 38.68, 84.42, 89.7, 342, 11.9, 30.49880, 34.48980, 2.1472, 34.4898, 30.4988, 80.50, 0.1898, 1449.33, 213.50, 207.5, 2.39, 6.6, 52
2008/04/21, 00:21:43, 1441.00, 0.00, -3.28, -2.70, 1017.7, 70.2520420, -13.2255620, , 255.80, 12.34, 252.30, 1018.66, 0.10, 0.0, 38.68, 84.38, 89.8, 332, 11.9, 30.49180, 34.48890, 2.1400, 34.4889, 30.4918, 81.20, 0.1881, 1449.32, 202.90, 192.8, 2.00, 7.6, 52
2008/04/21, 00:22:44, 1435.00, 0.00, -3.36, -2.70, 1017.7, 70.2511100, -13.2354650, , 257.30, 12.45, 254.90, 1018.72, 0.20, 0.0, 38.68, 84.35, 89.6, 338, 12.6, 30.48480, 34.48780, 2.1330, 34.4878, 30.4848, 82.00, 0.1877, 1449.32, 195.20, 208.2, 3.74, 7.3, 52
2008/04/21, 00:23:43, 2468.00, 0.00, -3.36, -2.70, 1017.7, 70.2502800, -13.2454530, , 255.70, 12.52, 252.90, 1018.75, 0.20, 0.0, 38.68, 84.35, 89.5, 337, 9.9, 30.46920, 34.48840, 2.1145, 34.4884, 30.4692, 82.00, 0.1890, 1449.32, 192.10, 190.5, 3.72, 5.2, 52
2008/04/21, 00:24:43, 0.00, 0.00, -3.34, -2.80, 1017.8, 70.2493580, -13.2554100, , 255.80, 12.76, 252.70, 1018.72, 0.20, 0.0, 38.68, 84.28, 89.4, 336, 9.2, 30.45790, 34.48780, 2.1021, 34.4878, 30.4579, 82.40, 0.1874, 1449.31, 169.30, 184.0, 2.49, 4.4, 52
2008/04/21, 00:25:44, 1393.00, 0.00, -3.39, -2.80, 1017.8, 70.2485900, -13.2654930, , 257.10, 12.58, 254.10, 1018.84, 0.10, 0.0, 38.68, 84.20, 89.6, 339, 11.2, 30.46740, 34.48820, 2.1126, 34.4882, 30.4674, 81.50, 0.1830, 1449.29, 162.00, 202.1, 2.67, 6.2, 52
2008/04/21, 00:26:43, 1364.00, 0.00, -3.34, -2.70, 1017.6, 70.2477880, -13.2755530, , 258.10, 12.60, 254.20, 1018.61, 0.10, 0.0, 38.68, 84.52, 89.8, 345, 12.1, 30.47290, 34.49010, 2.1172, 34.4901, 30.4729, 81.50, 0.1769, 1449.27, 193.10, 216.0, 2.32, 6.5, 52
2008/04/21, 00:27:43, 1361.00, 0.00, -3.31, -2.70, 1017.7, 70.2469070, -13.2855580, , 254.50, 12.70, 252.40, 1018.54, 0.10, 0.0, 38.68, 84.28, 89.7, 345, 12.4, 30.47900, 34.49050, 2.1238, 34.4905, 30.4790, 81.70, 0.1725, 1449.24, 199.60, 215.9, 2.00, 6.5, 52
2008/04/21, 00:28:43, 0.00, 0.00, -3.23, -2.70, 1017.7, 70.2460920, -13.2956150, , 256.30, 12.84, 252.40, 1018.62, 0.20, 0.0, 38.68, 84.35, 89.8, 342, 11.8, 30.47830, 34.48970, 2.1238, 34.4897, 30.4783, 81.70, 0.1643, 1449.21, 220.00, 208.7, 1.57, 6.2, 52
2008/04/21, 00:29:43, 0.00, 0.00, -3.23, -2.60, 1017.6, 70.2452580, -13.3056670, , 256.20, 12.65, 253.20, 1018.73, 0.30, 0.0, 38.68, 84.52, 89.9, 343, 11.4, 30.47470, 34.49250, 2.1171, 34.4925, 30.4747, 82.40, 0.1565, 1449.18, 194.80, 209.1, 2.06, 5.8, 52
2008/04/21, 00:30:43, 1116.00, 0.00, -3.23, -2.60, 1017.8, 70.2444220, -13.3157170, , 253.00, 12.84, 252.00, 1018.70, 0.30, 0.0, 38.68, 84.42, 89.8, 336, 11.2, 30.47120, 34.49160, 2.1139, 34.4916, 30.4712, 82.00, 0.1526, 1449.15, 194.70, 194.8, 1.82, 6.4, 52
2008/04/21, 00:31:43, 1107.00, 0.00, -3.20, -2.60, 1017.6, 70.2435330, -13.3257330, , 256.40, 12.52, 252.90, 1018.67, 0.40, 0.0, 38.68, 84.57, 89.8, 337, 12.5, 30.46640, 34.48740, 2.1121, 34.4874, 30.4664, 81.70, 0.1505, 1449.14, 191.10, 203.6, 2.82, 7.4, 52
2008/04/21, 00:32:44, 1123.00, 0.00, -3.25, -2.60, 1017.7, 70.2426380, -13.3357520, , 253.80, 12.67, 252.50, 1018.67, 0.40, 0.0, 38.68, 84.30, 89.5, 337, 11.2, 30.46890, 34.48380, 2.1184, 34.4838, 30.4689, 83.00, 0.1516, 1449.14, 189.10, 196.1, 3.62, 6.3, 52
2008/04/21, 00:33:43, 868.50, 0.00, -3.23, -2.60, 1017.7, 70.2417670, -13.3458030, , 254.50, 12.74, 251.80, 1018.68, 0.30, 0.0, 38.68, 84.18, 89.4, 333, 10.0, 30.46120, 34.48130, 2.1118, 34.4813, 30.4612, 82.40, 0.1542, 1449.15, 171.70, 184.4, 2.71, 5.8, 52
2008/04/21, 00:34:43, 0.00, 0.00, -3.11, -2.60, 1017.6, 70.2408550, -13.3558520, , 256.40, 12.61, 251.40, 1018.60, 0.30, 0.0, 38.68, 84.13, 89.7, 344, 12.0, 30.45410, 34.48070, 2.1042, 34.4807, 30.4541, 81.70, 0.1560, 1449.16, 164.20, 211.6, 2.91, 6.3, 52
2008/04/21, 00:35:43, 0.00, 0.00, -3.06, -2.50, 1017.7, 70.2400280, -13.3659150, , 256.70, 12.65, 254.50, 1018.56, 0.20, 0.0, 38.68, 84.40, 89.8, 334, 10.9, 30.44630, 34.48020, 2.0957, 34.4802, 30.4463, 81.70, 0.1554, 1449.16, 202.10, 194.9, 2.49, 6.3, 52
2008/04/21, 00:36:43, 0.00, 0.00, -3.09, -2.50, 1017.5, 70.2391370, -13.3759530, , 252.30, 12.55, 251.60, 1018.54, 0.40, 0.0, 38.68, 84.59, 89.6, 334, 11.2, 30.44330, 34.48140, 2.0912, 34.4814, 30.4433, 82.70, 0.1539, 1449.15, 183.10, 192.2, 3.49, 6.6, 52
2008/04/21, 00:37:44, 1405.00, 0.00, -3.23, -2.50, 1017.7, 70.2381820, -13.3859770, , 255.30, 12.80, 252.40, 1018.60, 0.40, 0.0, 38.68, 84.28, 89.3, 341, 11.6, 30.42870, 34.48090, 2.0748, 34.4809, 30.4287, 81.50, 0.1523, 1449.14, 188.70, 205.4, 3.50, 6.2, 52
2008/04/21, 00:38:43, 1398.00, 0.00, -3.11, -2.60, 1017.7, 70.2372580, -13.3960820, , 254.10, 13.03, 252.30, 1018.59, 0.20, 0.0, 38.68, 84.11, 89.1, 337, 10.8, 30.42230, 34.48040, 2.0678, 34.4804, 30.4223, 82.40, 0.1505, 1449.14, 185.10, 194.9, 2.31, 6.0, 52
2008/04/21, 00:39:43, 1394.00, 0.00, -3.14, -2.60, 1017.5, 70.2364120, -13.4062470, , 257.30, 12.77, 253.50, 1018.59, 0.20, 0.0, 38.68, 83.98, 89.1, 341, 11.5, 30.41810, 34.48130, 2.0623, 34.4813, 30.4181, 83.00, 0.1460, 1449.12, 183.40, 206.1, 2.24, 6.0, 52
2008/04/21, 00:40:43, 0.00, 0.00, -3.17, -2.60, 1017.7, 70.2355770, -13.4164100, , 258.70, 12.92, 254.00, 1018.64, 0.20, 0.0, 38.68, 83.76, 88.9, 324, 8.9, 30.42430, 34.48210, 2.0685, 34.4821, 30.4243, 83.00, 0.1358, 1449.07, 189.10, 168.3, 2.28, 5.9, 52
2008/04/21, 00:41:43, 1363.00, 0.00, -3.23, -2.60, 1017.6, 70.2346820, -13.4265350, , 255.80, 12.81, 253.10, 1018.57, 0.20, 0.0, 38.68, 83.81, 88.8, 330, 8.5, 30.42820, 34.48260, 2.0727, 34.4826, 30.4282, 82.00, 0.1283, 1449.03, 162.10, 169.6, 4.06, 4.9, 52
2008/04/21, 00:42:43, 1335.00, 0.00, -3.20, -2.60, 1017.7, 70.2337520, -13.4366530, , 257.10, 12.86, 253.80, 1018.55, 0.00, 0.0, 38.68, 83.69, 88.9, 330, 8.0, 30.43050, 34.48270, 2.0752, 34.4827, 30.4305, 81.70, 0.1278, 1449.03, 157.80, 165.8, 3.73, 4.5, 52
2008/04/21, 00:43:43, 1325.00, 0.00, -3.20, -2.60, 1017.7, 70.2327780, -13.4467530, , 251.20, 13.04, 251.60, 1018.55, 0.30, 0.0, 38.68, 83.86, 89.0, 335, 10.9, 30.43320, 34.48210, 2.0788, 34.4821, 30.4332, 82.00, 0.1348, 1449.06, 146.90, 190.2, 3.28, 6.1, 52
2008/04/21, 00:44:44, 1362.00, 0.00, -3.06, -2.60, 1017.6, 70.2318680, -13.4568750, , 255.40, 12.83, 253.70, 1018.55, 0.20, 0.0, 38.68, 84.06, 89.1, 332, 9.9, 30.43400, 34.48290, 2.0791, 34.4829, 30.4340, 82.40, 0.1382, 1449.08, 174.60, 184.5, 3.08, 5.7, 52
2008/04/21, 00:45:43, 1833.00, 0.00, -3.00, -2.50, 1017.5, 70.2309570, -13.4669880, , 254.10, 12.81, 251.30, 1018.49, 0.20, 0.0, 38.68, 84.03, 89.2, 337, 12.6, 30.42720, 34.48240, 2.0717, 34.4824, 30.4272, 81.70, 0.1352, 1449.07, 180.50, 203.6, 3.89, 7.3, 52
2008/04/21, 00:46:43, 1383.00, 0.00, -3.14, -2.50, 1017.5, 70.2299730, -13.4770930, , 257.00, 12.90, 254.20, 1018.53, 0.30, 0.0, 38.68, 83.96, 89.0, 336, 11.6, 30.43070, 34.48370, 2.0745, 34.4837, 30.4307, 82.40, 0.1407, 1449.09, 192.00, 198.6, 2.93, 6.5, 52
2008/04/21, 00:47:44, 1381.00, 0.00, -3.14, -2.50, 1017.5, 70.2290330, -13.4871930, , 252.10, 12.95, 252.00, 1018.49, 0.30, 0.0, 38.68, 84.03, 89.0, 332, 11.9, 30.42800, 34.48260, 2.0724, 34.4826, 30.4280, 83.20, 0.1501, 1449.13, 185.20, 191.9, 4.04, 7.2, 52
2008/04/21, 00:48:43, 1267.00, 0.00, -3.09, -2.50, 1017.5, 70.2281330, -13.4973350, , 254.00, 12.76, 253.00, 1018.46, 0.40, 0.0, 38.68, 83.93, 89.0, 330, 9.3, 30.41710, 34.48190, 2.0605, 34.4819, 30.4171, 82.40, 0.1588, 1449.17, 177.30, 176.0, 4.87, 5.6, 52
2008/04/21, 00:49:43, 2005.00, 0.00, -3.28, -2.60, 1017.5, 70.2271820, -13.5074380, , 252.60, 12.91, 252.20, 1018.47, 0.00, 0.0, 38.68, 83.98, 88.8, 339, 11.0, 30.40920, 34.48270, 2.0507, 34.4827, 30.4092, 82.40, 0.1639, 1449.20, 176.70, 199.4, 2.92, 5.8, 52
2008/04/21, 00:50:43, 1284.00, 0.00, -3.17, -2.60, 1017.6, 70.2262480, -13.5175850, , 256.90, 13.04, 253.60, 1018.50, 0.10, 0.0, 38.68, 83.96, 88.9, 335, 10.5, 30.40140, 34.48370, 2.0408, 34.4837, 30.4014, 82.00, 0.1631, 1449.19, 181.50, 191.7, 2.06, 5.7, 52
2008/04/21, 00:51:43, 0.00, 0.00, -3.20, -2.60, 1017.5, 70.2252780, -13.5277120, , 254.50, 13.01, 252.10, 1018.53, 0.20, 0.0, 38.68, 84.08, 89.1, 334, 9.6, 30.40700, 34.48670, 2.0445, 34.4867, 30.4070, 82.00, 0.1533, 1449.15, 167.20, 182.2, 2.38, 5.1, 52
2008/04/21, 00:52:43, 0.00, 0.00, -3.14, -2.50, 1017.5, 70.2243780, -13.5378930, , 255.80, 12.89, 254.80, 1018.43, 0.20, 0.0, 38.68, 84.13, 89.1, 340, 10.7, 30.42190, 34.48710, 2.0613, 34.4871, 30.4219, 81.70, 0.1405, 1449.10, 172.60, 202.1, 2.43, 5.5, 52
2008/04/21, 00:53:43, 0.00, 0.00, -3.17, -2.50, 1017.4, 70.2235050, -13.5480820, , 254.10, 12.76, 252.10, 1018.53, 0.20, 0.0, 38.68, 84.20, 89.2, 336, 10.1, 30.42360, 34.48780, 2.0626, 34.4878, 30.4236, 81.70, 0.1288, 1449.04, 173.80, 188.6, 1.74, 5.3, 52
2008/04/21, 00:54:44, 1364.00, 0.00, -3.09, -2.50, 1017.5, 70.2225770, -13.5582050, , 254.20, 12.80, 251.40, 1018.43, 0.20, 0.0, 38.68, 84.40, 89.4, 335, 10.3, 30.41710, 34.48960, 2.0535, 34.4896, 30.4171, 80.50, 0.1172, 1448.99, 171.30, 189.7, 2.08, 5.6, 52
2008/04/21, 00:55:44, 1407.00, 0.00, -3.11, -2.50, 1017.3, 70.2216270, -13.5683080, , 255.00, 12.73, 254.00, 1018.38, 0.20, 0.0, 38.68, 84.57, 89.4, 336, 12.1, 30.42700, 34.48940, 2.0650, 34.4894, 30.4270, 80.50, 0.1074, 1448.95, 174.10, 200.6, 2.68, 7.1, 52
2008/04/21, 00:56:43, 0.00, 0.00, -3.03, -2.50, 1017.4, 70.2206970, -13.5783950, , 254.90, 12.78, 252.40, 1018.44, 0.30, 0.0, 38.68, 84.42, 89.5, 342, 12.9, 30.44890, 34.49100, 2.0888, 34.4910, 30.4489, 80.20, 0.0992, 1448.91, 197.00, 211.4, 2.24, 7.3, 52
2008/04/21, 00:57:44, 0.00, 0.00, -3.09, -2.40, 1017.3, 70.2198050, -13.5885080, , 255.50, 12.74, 253.10, 1018.37, 0.50, 0.0, 38.68, 84.57, 89.6, 344, 13.7, 30.45470, 34.49050, 2.0959, 34.4905, 30.4547, 79.60, 0.0955, 1448.90, 209.50, 218.3, 2.04, 7.8, 52
2008/04/21, 00:58:44, 0.00, 0.00, -3.03, -2.50, 1017.4, 70.2188820, -13.5985570, , 257.80, 12.68, 253.80, 1018.22, 0.30, 0.0, 38.68, 84.38, 89.4, 340, 13.9, 30.45280, 34.49010, 2.0940, 34.4901, 30.4528, 79.90, 0.0959, 1448.90, 238.90, 213.0, 2.11, 8.2, 52
2008/04/21, 00:59:43, 4579.00, 0.00, -2.97, -2.40, 1017.4, 70.2180400, -13.6086330, , 254.60, 12.81, 252.00, 1018.27, 0.30, 0.0, 38.68, 84.42, 89.5, 338, 11.5, 30.44660, 34.48970, 2.0873, 34.4897, 30.4466, 79.90, 0.0895, 1448.87, 200.10, 200.5, 2.43, 6.4, 52
2008/04/21, 01:00:43, 1372.00, 0.00, -3.11, -2.40, 1017.3, 70.2171130, -13.6187250, , 258.40, 12.92, 255.40, 1018.31, 0.10, 0.0, 38.68, 84.38, 89.2, 344, 12.4, 30.43390, 34.49040, 2.0720, 34.4904, 30.4339, 80.20, 0.0802, 1448.82, 197.90, 217.9, 1.71, 6.5, 52
2008/04/21, 01:01:43, 1355.00, 0.00, -3.00, -2.50, 1017.4, 70.2163120, -13.6289450, , 256.00, 13.00, 253.10, 1018.33, 0.30, 0.0, 38.68, 84.13, 89.2, 347, 10.8, 30.40870, 34.49080, 2.0426, 34.4908, 30.4087, 79.60, 0.0724, 1448.79, 206.60, 212.8, 0.91, 4.9, 52
2008/04/21, 01:02:43, 3069.00, 0.00, -3.09, -2.50, 1017.4, 70.2153950, -13.6390820, , 255.80, 12.85, 254.50, 1018.28, 0.20, 0.0, 38.68, 84.03, 89.1, 341, 10.9, 30.39720, 34.48960, 2.0306, 34.4896, 30.3972, 79.60, 0.0676, 1448.77, 168.00, 203.5, 1.31, 5.5, 52
2008/04/21, 01:03:44, 1389.00, 0.00, -3.06, -2.50, 1017.4, 70.2145750, -13.6492470, , 253.20, 12.79, 250.40, 1018.28, 0.20, 0.0, 38.68, 84.23, 89.2, 337, 11.0, 30.38730, 34.48940, 2.0193, 34.4894, 30.3873, 79.00, 0.0626, 1448.74, 171.60, 195.4, 1.77, 6.1, 52
2008/04/21, 01:04:43, 1384.00, 0.00, -3.14, -2.50, 1017.3, 70.2136200, -13.6593250, , 252.90, 12.81, 251.80, 1018.40, 0.10, 0.0, 38.68, 84.25, 89.3, 335, 10.3, 30.37870, 34.48840, 2.0103, 34.4884, 30.3787, 79.00, 0.0580, 1448.72, 170.60, 188.1, 1.91, 5.6, 52
2008/04/21, 01:05:44, 0.00, 0.00, -3.09, -2.40, 1017.2, 70.2126630, -13.6693980, , 253.60, 13.01, 251.60, 1018.19, 0.10, 0.0, 38.68, 84.50, 89.4, 330, 12.1, 30.37360, 34.48960, 2.0033, 34.4896, 30.3736, 79.00, 0.0528, 1448.70, 183.00, 189.9, 3.07, 7.7, 52
2008/04/21, 01:06:43, 0.00, 0.00, -3.03, -2.50, 1017.3, 70.2117250, -13.6794970, , 255.00, 12.68, 253.40, 1018.38, 0.10, 0.0, 38.68, 84.57, 89.3, 336, 10.8, 30.37670, 34.49090, 2.0058, 34.4909, 30.3767, 79.30, 0.0478, 1448.67, 187.60, 195.0, 4.62, 5.9, 52
2008/04/21, 01:07:43, 0.00, 0.00, -3.09, -2.50, 1017.4, 70.2108370, -13.6896850, , 256.50, 12.96, 253.10, 1018.29, 0.10, 0.0, 38.68, 84.25, 89.2, 331, 9.8, 30.37930, 34.48960, 2.0100, 34.4896, 30.3793, 79.30, 0.0443, 1448.66, 165.60, 180.8, 2.65, 5.7, 52
2008/04/21, 01:08:43, 1472.00, 0.00, -3.06, -2.50, 1017.3, 70.2099430, -13.6998570, , 254.60, 12.56, 251.70, 1018.22, 0.00, 0.0, 38.68, 84.42, 89.5, 336, 10.3, 30.37060, 34.48920, 2.0002, 34.4892, 30.3706, 79.30, 0.0408, 1448.64, 167.40, 190.6, 2.87, 5.6, 52
2008/04/21, 01:09:43, 0.00, 0.00, -3.06, -2.50, 1017.3, 70.2090200, -13.7099780, , 257.20, 13.02, 254.70, 1018.24, 0.10, 0.0, 38.68, 84.74, 89.6, 341, 11.4, 30.35870, 34.48980, 1.9861, 34.4898, 30.3587, 79.00, 0.0395, 1448.64, 187.00, 207.2, 1.83, 5.9, 52
2008/04/21, 01:10:43, 0.00, 0.00, -3.06, -2.40, 1017.2, 70.2081580, -13.7200950, , 255.50, 12.91, 251.30, 1018.28, 0.10, 0.0, 38.68, 84.94, 89.9, 337, 14.3, 30.35400, 34.49100, 1.9796, 34.4910, 30.3540, 79.30, 0.0403, 1448.64, 196.90, 207.0, 2.18, 9.0, 52
2008/04/21, 01:11:43, 0.00, 0.00, -3.06, -2.40, 1017.2, 70.2072520, -13.7301580, , 256.10, 12.85, 252.50, 1018.17, 0.30, 0.0, 38.68, 84.79, 89.7, 341, 13.5, 30.34480, 34.49070, 1.9692, 34.4907, 30.3448, 79.60, 0.0476, 1448.67, 213.60, 213.3, 3.20, 7.9, 52
2008/04/21, 01:12:43, 2426.00, 0.00, -3.09, -2.50, 1017.2, 70.2063930, -13.7402930, , 256.90, 12.59, 254.60, 1018.24, -0.10, 0.0, 38.68, 84.91, 89.7, 339, 13.0, 30.34710, 34.48890, 1.9735, 34.4889, 30.3471, 79.60, 0.0556, 1448.71, 221.20, 209.0, 2.17, 7.6, 52
2008/04/21, 01:13:43, 1454.00, 0.00, -3.11, -2.50, 1017.2, 70.2055320, -13.7504320, , 253.70, 12.74, 252.60, 1018.20, -0.20, 0.0, 38.68, 84.79, 89.6, 342, 13.2, 30.34120, 34.48690, 1.9685, 34.4869, 30.3412, 79.00, 0.0591, 1448.73, 200.80, 211.2, 2.46, 7.6, 52
2008/04/21, 01:14:43, 832.20, 0.00, -3.17, -2.50, 1017.2, 70.2046880, -13.7605680, , 258.30, 12.77, 254.70, 1018.20, -0.20, 0.0, 38.68, 84.81, 89.4, 342, 13.1, 30.33370, 34.48760, 1.9593, 34.4876, 30.3337, 78.70, 0.0589, 1448.72, 219.60, 214.1, 2.06, 7.6, 52
2008/04/21, 01:15:43, 926.00, 0.00, -3.14, -2.60, 1017.2, 70.2038530, -13.7707000, , 255.90, 12.76, 252.10, 1018.31, -0.10, 0.0, 38.68, 84.55, 89.5, 343, 12.7, 30.33110, 34.48780, 1.9560, 34.4878, 30.3311, 78.40, 0.0561, 1448.71, 213.60, 212.9, 1.90, 7.0, 52
2008/04/21, 01:16:43, 1467.00, 0.00, -3.11, -2.60, 1017.2, 70.2030280, -13.7808630, , 256.00, 12.74, 252.80, 1018.22, 0.20, 0.0, 38.68, 84.42, 89.6, 347, 12.9, 30.32710, 34.48750, 1.9518, 34.4875, 30.3271, 78.40, 0.0512, 1448.69, 206.80, 220.2, 2.14, 7.0, 52
2008/04/21, 01:17:44, 1459.00, 0.00, -3.00, -2.50, 1017.2, 70.2020950, -13.7909400, , 255.10, 12.86, 252.10, 1018.10, 0.00, 0.0, 38.68, 84.47, 89.6, 341, 11.7, 30.32660, 34.48740, 1.9513, 34.4874, 30.3266, 78.40, 0.0464, 1448.67, 209.40, 205.7, 1.86, 6.2, 52
2008/04/21, 01:18:43, 0.00, 0.00, -3.11, -2.50, 1017.3, 70.2011930, -13.8010320, , 255.60, 12.84, 254.00, 1018.20, 0.20, 0.0, 38.68, 84.28, 89.4, 345, 10.8, 30.33300, 34.48840, 1.9577, 34.4884, 30.3330, 79.30, 0.0441, 1448.66, 194.20, 210.6, 2.01, 5.2, 52
2008/04/21, 01:19:44, 3706.00, 0.00, -3.06, -2.50, 1017.2, 70.2003520, -13.8111580, , 256.30, 12.73, 252.00, 1018.20, 0.10, 0.0, 38.68, 84.35, 89.4, 335, 10.7, 30.33390, 34.48830, 1.9589, 34.4883, 30.3339, 78.70, 0.0411, 1448.64, 186.70, 193.3, 1.43, 5.9, 52
2008/04/21, 01:20:43, 1404.00, 0.00, -3.06, -2.50, 1017.2, 70.1994170, -13.8212050, , 254.60, 12.81, 251.70, 1018.19, 0.00, 0.0, 38.68, 84.33, 89.5, 334, 11.0, 30.34810, 34.49020, 1.9734, 34.4902, 30.3481, 79.30, 0.0373, 1448.63, 170.00, 190.9, 2.37, 6.3, 52
2008/04/21, 01:21:44, 214.90, 0.00, -3.14, -2.50, 1017.2, 70.1984920, -13.8312720, , 255.90, 12.85, 252.40, 1018.28, 0.30, 0.0, 38.68, 84.23, 89.5, 333, 10.0, 30.35770, 34.48990, 1.9847, 34.4899, 30.3577, 79.00, 0.0321, 1448.60, 169.00, 185.8, 2.70, 5.3, 52
2008/04/21, 01:22:43, 1402.00, 0.00, -2.97, -2.40, 1017.2, 70.1975500, -13.8412950, , 252.70, 12.66, 252.90, 1018.20, 0.30, 0.0, 38.68, 84.28, 89.5, 337, 10.4, 30.36400, 34.49120, 1.9908, 34.4912, 30.3640, 79.60, 0.0318, 1448.60, 168.20, 193.1, 2.47, 5.4, 52
2008/04/21, 01:23:43, 1408.00, 0.00, -2.97, -2.40, 1017.2, 70.1966850, -13.8513400, , 254.20, 12.76, 252.80, 1018.17, 0.50, 0.0, 38.68, 84.45, 89.6, 330, 11.4, 30.35920, 34.48960, 1.9868, 34.4896, 30.3592, 79.30, 0.0325, 1448.60, 169.40, 188.7, 2.37, 7.0, 52
2008/04/21, 01:24:43, 3347.00, 0.00, -2.89, -2.40, 1017.1, 70.1958050, -13.8613320, , 257.40, 12.53, 254.00, 1017.94, 0.30, 0.0, 38.68, 84.47, 89.9, 341, 13.7, 30.35420, 34.49160, 1.9792, 34.4916, 30.3542, 79.00, 0.0336, 1448.61, 189.90, 214.3, 3.76, 8.1, 52
2008/04/21, 01:25:43, 0.00, 0.00, -2.92, -2.30, 1017.1, 70.1949520, -13.8715270, , 254.70, 12.85, 251.10, 1018.07, 0.20, 0.0, 38.68, 84.77, 89.8, 336, 15.3, 30.34580, 34.48710, 1.9736, 34.4871, 30.3458, 79.00, 0.0339, 1448.61, 203.40, 206.2, 2.55, 10.2, 52
2008/04/21, 01:26:43, 0.00, 0.00, -2.89, -2.30, 1017.0, 70.1941330, -13.8813730, , 258.40, 12.43, 253.70, 1018.07, 0.30, 0.0, 38.68, 84.74, 89.8, 340, 13.6, 30.34330, 34.48920, 1.9689, 34.4892, 30.3433, 79.30, 0.0332, 1448.61, 209.10, 212.3, 3.79, 8.2, 52
2008/04/21, 01:27:43, 0.00, 0.00, -3.09, -2.40, 1017.2, 70.1933070, -13.8913800, , 255.30, 12.62, 253.40, 1018.06, 0.30, 0.0, 38.68, 84.64, 89.6, 330, 11.7, 30.34120, 34.48900, 1.9666, 34.4890, 30.3412, 80.20, 0.0317, 1448.60, 202.90, 189.2, 3.57, 7.6, 52
2008/04/21, 01:28:43, 0.00, 0.00, -3.03, -2.40, 1017.3, 70.1925030, -13.9013780, , 257.00, 12.65, 253.80, 1018.15, 0.20, 0.0, 38.68, 84.59, 89.6, 329, 9.9, 30.34000, 34.48740, 1.9667, 34.4874, 30.3400, 79.60, 0.0307, 1448.59, 185.40, 181.6, 4.39, 6.2, 52
2008/04/21, 01:29:43, 1531.00, 0.00, -3.11, -2.40, 1017.2, 70.1916330, -13.9113600, , 255.20, 12.55, 251.40, 1018.09, 0.00, 0.0, 38.68, 84.55, 89.4, 333, 11.6, 30.32910, 34.48670, 1.9548, 34.4867, 30.3291, 78.70, 0.0307, 1448.59, 173.00, 192.0, 5.00, 7.2, 52
2008/04/21, 01:30:44, 1567.00, 0.00, -3.09, -2.50, 1017.3, 70.1907930, -13.9214170, , 257.20, 12.65, 254.60, 1018.14, 0.00, 0.0, 38.68, 84.42, 89.2, 334, 10.1, 30.32760, 34.48550, 1.9542, 34.4855, 30.3276, 79.00, 0.0285, 1448.58, 188.40, 189.0, 4.28, 5.7, 52